Location: Unspecified
(47.2333°N, 39.7000°E)
Time: 06:04:43
(UTC+00:00)

ISS - Pass Details

Date: 08 March 2021
Orbit: 418 x 422 km, 51.6° (Epoch: 16 April)

Event Time Altitude Azimuth Distance (km) Brightness Sun altitude
Exits shadow 01:36:57 45° 35° (NE) 583 -2.8 -22.8°
Drops below altitude 10° 01:39:53 10° 90° (E) 1,498 0.0 -22.3°
Sets 01:42:01 0° 96° (E) 2,361 1.2 -22.0°
